Wind_Speed
27 27 27 27 27 28 28 28 28 27 28 28 28 28 28 28 26 25 26 26 25 25 24 24 23 23 22 20 20 20 20 20 20 20 20 20 21 21 21 21 21 22 22
28 29 29 28 29 29 29 30 30 30 30 30 31 30 30 29 29 27 27 28 27 27 26 25 24 23 22 21 20 20 20 20 20 20 21 21 21 22 22 23 23 23 24
30 30 31 31 31 32 32 32 33 33 33 33 33 33 32 32 31 30 28 29 29 29 28 27 26 25 24 23 22 21 21 21 21 21 21 22 22 23 23 24 24 25 25
33 33 33 34 34 35 35 35 35 36 36 36 36 35 34 34 33 32 30 30 30 30 30 29 28 27 26 25 24 24 23 23 23 23 23 23 24 24 24 25 26 26 26
36 36 36 37 38 38 38 38 39 39 39 39 39 38 37 36 36 34 33 32 31 31 32 32 30 29 28 27 27 26 26 25 25 25 25 26 26 26 27 27 27 28 28
39 40 40 40 40 41 41 42 42 42 42 42 42 41 40 39 39 37 35 34 33 33 33 33 33 32 31 30 30 29 29 28 28 28 28 29 29 30 30 30 30 30 30
42 43 43 43 44 44 44 44 45 45 46 46 46 45 45 43 41 40 39 37 36 36 35 35 35 34 34 34 33 32 32 32 31 31 31 32 32 32 33 33 33 33 33
46 47 47 47 47 48 48 48 48 49 49 49 49 49 48 47 44 43 43 41 40 39 38 37 37 37 37 37 36 36 36 35 35 35 35 35 35 35 36 36 36 36 37
48 49 50 50 51 51 51 51 52 52 52 53 53 53 51 50 49 47 46 45 44 42 42 41 40 40 40 40 40 40 40 39 38 38 38 38 39 39 39 40 40 40 40
49 50 51 52 53 54 54 54 55 55 55 55 56 56 55 54 53 51 49 48 47 46 45 45 44 43 43 43 43 43 43 42 42 42 42 42 42 42 42 43 43 43 43
49 50 51 53 55 56 57 57 57 58 58 58 58 58 59 58 56 55 53 51 50 50 49 48 47 46 45 45 46 46 46 45 45 45 45 45 46 46 46 46 47 46 46
49 50 51 53 55 56 58 59 60 61 61 61 61 61 61 60 59 58 57 55 54 52 52 51 50 49 49 48 48 49 48 48 47 47 47 48 48 48 49 49 50 50 50
49 50 52 53 55 57 59 60 62 63 64 64 64 63 63 62 61 60 59 59 57 55 54 54 53 52 51 51 50 50 50 50 49 49 49 50 51 52 52 52 53 52 52
48 49 51 53 55 57 60 62 64 65 66 66 66 65 64 63 63 62 60 60 59 57 55 54 54 53 53 53 52 51 51 51 50 51 52 52 53 54 54 54 54 54 55
47 49 51 53 56 58 61 64 65 66 67 67 67 66 65 63 62 62 61 60 58 57 56 55 55 55 54 52 50 51 52 53 52 53 54 55 57 57 58 58 58 58 59
46 49 52 54 56 59 61 62 63 64 65 65 65 64 63 62 61 60 60 59 58 57 56 56 56 55 57 55 54 53 54 54 54 56 57 58 58 59 60 61 61 62 62
46 49 51 52 54 56 58 58 59 59 60 60 60 60 60 60 59 58 58 59 58 58 58 58 58 58 59 57 56 56 56 56 58 59 61 62 62 63 63 64 64 64 64
45 46 48 49 51 52 52 51 50 49 50 52 53 54 55 56 56 56 56 57 57 58 59 59 59 59 60 59 60 59 60 61 62 62 63 64 65 66 65 65 65 66 66
41 43 44 45 45 45 44 42 41 41 42 43 45 47 48 50 52 53 54 54 55 56 58 59 59 59 60 61 61 61 62 62 63 65 66 66 67 66 65 66 67 67 68
38 39 40 40 39 38 37 35 35 36 36 37 38 40 42 43 46 48 49 50 51 53 54 55 56 57 60 61 61 62 64 65 65 66 66 67 67 67 67 68 67 68 69
35 36 36 35 34 33 32 31 30 30 30 30 31 33 34 36 39 41 42 44 46 47 49 52 54 55 57 58 59 60 62 62 63 64 65 66 66 67 68 69 70 70 71
32 33 32 31 29 28 28 26 25 25 24 24 25 26 28 29 31 33 35 39 41 44 46 48 51 52 54 56 57 59 60 61 62 63 64 65 67 68 69 70 71 71 72
30 29 28 26 26 25 24 22 21 20 19 18 19 20 21 23 26 28 31 34 36 39 42 45 48 50 52 53 55 56 57 59 61 63 64 66 67 67 68 69 69 68 68
26 26 25 24 23 21 20 20 18 16 13 12 13 15 16 19 21 24 27 31 34 36 39 42 44 47 49 51 53 55 58 61 63 65 65 65 65 64 64 64 63 61 59
24 23 22 22 21 19 18 18 17 15 13 12 13 14 15 17 20 23 26 28 31 34 37 40 42 45 49 52 55 58 60 61 63 64 63 61 60 58 56 55 53 51 49
22 21 20 20 19 19 18 17 16 15 14 14 14 16 17 18 21 23 26 29 32 35 38 42 45 48 51 54 57 59 60 61 61 60 58 55 53 50 46 46 46 45 43
Wind_Direction
289 289 287 285 284 284 283 282 281 281 281 282 282 282 282 283 282 281 281 282 283 285 286 288 289 290 291 293 295 296 296 297 297 296 294 293 292 291 289 288 286 283 282
287 287 286 285 284 283 282 282 281 281 281 282 282 282 282 281 280 280 280 281 281 282 284 286 286 287 287 289 292 294 296 296 296 295 293 292 291 290 288 287 285 283 281
286 286 285 284 283 282 281 281 282 282 282 282 283 283 283 282 280 279 279 280 280 281 282 284 284 285 285 286 288 290 293 295 295 295 293 292 290 289 288 287 285 283 282
285 285 284 283 281 281 281 281 282 282 282 282 282 282 282 282 282 280 279 278 278 280 280 281 282 282 283 284 285 287 290 291 293 293 293 292 290 289 288 287 285 284 282
285 285 284 284 283 282 281 281 280 280 280 280 280 280 281 281 280 280 278 277 276 276 278 279 279 280 280 281 283 285 287 288 288 289 290 290 290 289 288 287 286 284 283
284 284 284 283 283 282 282 281 279 279 279 279 279 278 278 278 278 278 278 276 275 274 275 276 277 277 278 279 281 283 284 284 285 286 287 287 287 287 287 286 285 284 283
283 283 283 282 281 280 280 279 279 278 278 277 277 276 275 276 277 277 276 275 273 273 272 273 274 275 276 277 279 280 281 282 282 283 284 284 284 284 285 284 284 283 283
281 281 282 281 280 280 279 278 277 276 276 275 275 274 274 275 276 275 274 273 272 272 272 271 272 273 274 275 276 278 279 279 280 281 282 282 282 282 282 282 281 281 281
280 281 281 280 280 279 279 278 277 275 275 274 273 274 274 274 273 273 274 273 272 271 271 271 270 271 272 274 276 276 276 277 278 279 280 281 281 281 280 280 279 278 278
278 279 279 280 280 279 279 278 276 275 273 273 272 272 272 272 272 272 272 273 272 272 271 271 271 272 273 274 275 276 276 276 277 278 279 279 280 281 280 279 278 277 276
278 278 278 279 279 279 279 278 276 275 273 272 271 271 271 271 271 271 271 271 272 272 272 272 272 274 275 276 276 275 275 275 276 277 278 278 279 280 280 281 279 277 276
279 279 279 279 279 279 278 277 276 274 273 271 270 269 269 270 270 270 270 270 271 271 272 274 274 275 276 278 277 276 275 276 276 277 278 279 279 279 280 281 280 278 276
281 281 281 281 281 279 278 277 276 274 272 271 269 267 267 267 267 268 268 269 270 270 272 273 274 275 276 277 277 277 277 276 275 276 278 279 280 280 280 280 279 278 276
284 285 285 284 283 281 280 278 276 275 272 270 268 266 265 264 264 265 266 267 269 269 271 272 274 275 276 276 276 276 276 276 275 277 278 279 280 280 281 280 280 279 278
288 288 288 288 286 284 282 280 278 275 272 269 267 265 264 263 262 262 263 264 266 267 269 271 273 276 277 277 278 278 277 277 279 279 279 281 282 282 281 280 280 280 280
292 292 292 291 289 287 285 283 280 275 271 268 266 264 262 261 260 260 260 261 263 265 267 269 272 275 277 277 279 280 279 280 281 281 282 283 283 283 282 282 281 280 280
296 297 296 295 294 291 289 285 281 277 272 269 266 263 261 259 258 258 258 258 260 262 264 267 270 273 274 277 279 281 282 282 283 283 283 283 283 284 284 283 282 281 281
300 301 300 300 298 296 294 289 285 280 275 271 267 263 260 258 256 256 256 257 259 261 263 266 269 272 275 279 281 282 282 283 284 284 284 284 284 284 284 283 283 283 282
304 305 305 305 304 302 300 295 289 284 279 274 269 265 262 258 255 254 255 256 258 261 264 267 270 273 277 279 281 282 282 283 285 285 284 284 285 285 285 284 284 284 283
308 309 310 310 310 309 306 301 294 289 284 277 272 267 263 259 256 254 255 257 259 262 265 268 271 273 276 279 280 281 282 284 285 286 286 286 287 287 287 286 286 285 284
311 314 315 314 316 316 313 309 303 295 288 280 272 266 263 260 256 255 256 257 259 262 266 268 271 274 277 279 281 282 284 285 287 287 288 288 289 289 289 288 288 287 286
315 318 319 318 318 321 320 316 311 301 292 283 274 269 265 263 260 258 258 259 262 265 267 269 272 275 278 280 282 284 285 287 288 289 290 291 291 291 290 289 289 288 287
316 319 322 323 323 323 324 323 319 310 297 286 277 272 272 266 264 261 260 261 264 268 271 274 277 279 281 283 285 287 288 290 291 292 292 293 293 292 291 290 290 289 288
317 319 323 326 328 328 328 327 326 324 313 299 288 282 277 271 269 271 270 270 272 275 278 280 281 284 286 288 290 291 292 293 294 294 295 295 294 294 293 292 291 289 288
319 321 325 330 332 333 332 331 330 327 323 314 308 301 293 287 285 282 281 281 282 284 286 288 289 290 292 293 294 295 295 296 296 296 296 296 295 294 294 293 292 290 290
320 323 326 330 332 334 335 334 333 332 329 322 316 311 305 301 297 295 294 293 293 294 294 294 295 295 296 297 297 297 298 298 298 297 297 296 295 294 293 293 292 291 291
Height
5846 5846 5846 5846 5846 5845 5845 5844 5844 5843 5842 5841 5841 5840 5840 5839 5839 5839 5837 5837 5836 5835 5834 5833 5832 5831 5830 5829 5828 5827 5826 5825 5824 5823 5822 5821 5821 5820 5820 5819 5819 5819 5819
5841 5840 5840 5840 5840 5840 5839 5838 5838 5838 5837 5836 5835 5834 5834 5833 5833 5833 5832 5831 5830 5830 5829 5828 5827 5826 5825 5824 5823 5822 5821 5820 5819 5818 5817 5816 5816 5815 5815 5814 5814 5814 5814
5835 5835 5834 5834 5834 5833 5832 5832 5831 5831 5831 5830 5829 5828 5827 5827 5826 5827 5827 5826 5825 5824 5823 5822 5821 5820 5819 5819 5818 5817 5816 5815 5814 5813 5812 5811 5810 5810 5809 5809 5808 5808 5808
5828 5828 5828 5827 5826 5826 5825 5825 5825 5824 5824 5823 5822 5822 5821 5820 5820 5820 5820 5820 5819 5818 5817 5816 5815 5814 5814 5813 5812 5811 5810 5809 5808 5807 5806 5805 5804 5804 5803 5803 5802 5802 5801
5821 5821 5821 5820 5819 5818 5818 5817 5817 5816 5815 5815 5814 5814 5814 5813 5812 5812 5812 5812 5812 5811 5810 5809 5809 5808 5807 5806 5805 5805 5804 5803 5802 5801 5800 5799 5798 5797 5796 5796 5795 5795 5794
5813 5813 5812 5811 5810 5810 5809 5809 5808 5807 5807 5806 5805 5805 5805 5805 5804 5804 5804 5804 5804 5803 5803 5802 5801 5801 5800 5799 5798 5797 5797 5796 5795 5794 5793 5792 5791 5790 5789 5789 5788 5787 5787
5804 5803 5803 5802 5801 5801 5800 5799 5798 5797 5797 5796 5796 5795 5795 5795 5796 5796 5795 5795 5795 5794 5795 5794 5793 5792 5792 5791 5790 5789 5789 5788 5787 5786 5785 5784 5783 5782 5782 5781 5780 5779 5778
5795 5794 5793 5792 5791 5790 5789 5788 5787 5786 5785 5785 5784 5783 5784 5786 5786 5786 5785 5785 5785 5785 5785 5785 5784 5783 5783 5782 5781 5781 5780 5779 5778 5777 5776 5775 5774 5774 5773 5772 5771 5770 5769
5785 5783 5782 5780 5779 5778 5777 5776 5775 5774 5774 5773 5772 5772 5773 5774 5774 5774 5775 5775 5775 5775 5774 5774 5774 5774 5773 5772 5771 5770 5769 5769 5768 5767 5766 5765 5764 5763 5763 5762 5761 5760 5760
5775 5773 5771 5769 5767 5766 5765 5764 5762 5761 5760 5760 5759 5759 5760 5760 5761 5762 5763 5763 5763 5763 5763 5763 5763 5762 5762 5762 5761 5759 5758 5757 5757 5756 5755 5754 5753 5752 5751 5751 5750 5749 5749
5764 5762 5760 5758 5755 5753 5751 5750 5748 5747 5747 5746 5746 5746 5745 5745 5747 5748 5749 5751 5750 5751 5751 5751 5751 5751 5750 5750 5750 5748 5746 5745 5744 5743 5742 5741 5741 5740 5739 5738 5737 5737 5736
5753 5751 5748 5746 5743 5741 5738 5736 5734 5732 5731 5731 5731 5731 5731 5731 5733 5733 5734 5736 5737 5738 5737 5738 5739 5738 5738 5737 5737 5735 5733 5732 5732 5730 5729 5728 5727 5726 5726 5725 5724 5723 5723
5742 5739 5736 5734 5731 5728 5724 5721 5719 5717 5715 5714 5715 5715 5716 5717 5717 5718 5719 5720 5722 5724 5724 5724 5725 5725 5724 5724 5723 5722 5720 5719 5718 5717 5716 5715 5714 5713 5711 5710 5709 5709 5708
5730 5727 5723 5720 5717 5713 5709 5706 5702 5700 5698 5697 5696 5697 5698 5700 5701 5702 5704 5705 5706 5709 5710 5710 5710 5710 5710 5709 5709 5707 5706 5705 5704 5702 5701 5700 5699 5698 5697 5696 5694 5693 5692
5717 5714 5710 5706 5702 5697 5693 5688 5684 5681 5679 5678 5677 5678 5679 5682 5685 5686 5688 5690 5692 5693 5695 5696 5696 5696 5695 5694 5694 5693 5692 5691 5689 5687 5687 5685 5684 5682 5681 5680 5679 5677 5676
5705 5700 5695 5690 5685 5680 5675 5669 5665 5661 5659 5658 5658 5659 5661 5664 5666 5669 5672 5674 5676 5678 5679 5682 5682 5681 5680 5679 5679 5678 5677 5676 5674 5673 5671 5669 5667 5666 5664 5662 5661 5659 5657
5692 5686 5681 5675 5668 5662 5656 5650 5645 5641 5639 5639 5640 5641 5643 5646 5649 5653 5655 5658 5661 5664 5665 5666 5667 5666 5666 5665 5664 5663 5662 5661 5659 5657 5654 5652 5651 5648 5646 5644 5642 5640 5638
5679 5673 5667 5660 5653 5646 5639 5633 5628 5624 5622 5622 5623 5624 5627 5630 5633 5637 5640 5644 5647 5649 5651 5652 5653 5652 5651 5650 5649 5648 5647 5645 5642 5639 5637 5635 5632 5630 5627 5624 5622 5620 5617
5668 5662 5655 5647 5640 5632 5625 5619 5614 5611 5609 5608 5609 5610 5612 5615 5619 5623 5627 5630 5633 5635 5637 5639 5639 5639 5637 5636 5634 5632 5630 5627 5624 5621 5619 5616 5613 5610 5607 5604 5601 5599 5596
5658 5652 5644 5637 5630 5622 5615 5610 5605 5602 5599 5598 5598 5599 5601 5603 5607 5610 5614 5617 5620 5623 5625 5626 5626 5625 5623 5621 5619 5617 5614 5611 5607 5604 5600 5597 5594 5590 5587 5583 5580 5577 5574
5650 5643 5636 5629 5622 5615 5609 5603 5598 5595 5592 5590 5590 5591 5592 5594 5597 5600 5603 5606 5609 5611 5612 5613 5612 5611 5609 5607 5604 5601 5598 5594 5590 5586 5583 5578 5574 5570 5566 5562 5557 5554 5550
5643 5636 5630 5623 5617 5610 5604 5598 5593 5589 5587 5585 5584 5584 5585 5587 5590 5592 5595 5597 5599 5600 5601 5600 5600 5598 5595 5593 5589 5586 5582 5578 5574 5570 5566 5560 5555 5550 5544 5539 5534 5530 5526
5637 5631 5625 5618 5612 5606 5601 5595 5590 5586 5584 5582 5581 5581 5581 5582 5584 5585 5587 5589 5590 5590 5590 5589 5587 5585 5582 5579 5575 5571 5566 5561 5556 5551 5548 5541 5534 5529 5522 5516 5511 5507 5503
5631 5626 5620 5615 5609 5603 5598 5594 5589 5586 5583 5581 5580 5579 5579 5579 5580 5581 5581 5582 5582 5581 5580 5578 5576 5572 5568 5564 5560 5555 5550 5544 5538 5532 5528 5523 5515 5509 5501 5494 5489 5485 5481
5626 5621 5616 5611 5606 5601 5597 5593 5589 5586 5583 5581 5579 5578 5577 5577 5577 5576 5576 5575 5574 5572 5570 5566 5563 5559 5555 5550 5545 5539 5533 5527 5520 5513 5509 5504 5497 5492 5483 5476 5470 5466 5463
5621 5617 5613 5608 5604 5600 5595 5592 5588 5585 5583 5580 5578 5577 5575 5574 5572 5571 5569 5567 5565 5563 5559 5555 5551 5546 5540 5534 5528 5522 5516 5509 5502 5495 5489 5485 5479 5475 5471 5462 5456 5452 5449